Location: Shenandoah County Park
(38.9356°N, 78.4524°W)
Time: 01:57:36
(UTC-05:00)

A-11 Canister half - Pass Details

Date: 07 December 2023
Orbit: 1526 x 1682 km, 47.3° (Epoch: 01 March)

Event Time Altitude Azimuth Distance (km) Brightness Sun altitude
Rises 22:24:51 0° 290° (WNW) 4,933 12.0 -63.1°
Reaches altitude 10° 22:28:09 10° 294° (WNW) 3,937 11.4 -63.7°
Enters shadow 22:29:02 13° 296° (WNW) 3,676 11.2 -63.8°
